Weather in Charentsavan

Armenia     40°24′12″N   44°38′46″E
temp.,
°C
wind,
m/s
gust,
m/s
humid.,
%
clouds,
%
prec.,
mm/h
press.,
hPa
HPBL,
m
23 october, sat
sat2301:00+4sw11470 0.0 102310
04:00+3n01460 0.0 102210
07:00+2ne01450 0.0 102210
10:00+9wsw11280 0.0 1021293
13:00+13wsw21200 0.0 10181284
16:00+13sw22220 0.0 10171404
19:00+7se01350 0.0 102010
22:00+5ene22470 0.0 102013
24 october, sun
sun2401:00+4ene12570 0.0 102012
04:00+3ne01490 0.0 101911
07:00+3sse01500 0.0 101910
10:00+9sw23330 0.0 1018403
13:00+12sw43233 0.0 10161142
16:00+12sw44215 0.0 1015876
19:00+6ssw12327 0.0 101713
22:00+5s01344 0.0 101710
25 october, mon
mon2501:00+4ne01385 0.0 101610
04:00+3nw014029 0.0 101610
07:00+2ssw11425 0.0 101610
10:00+8sw3530100 0.0 1016634
13:00+10wsw452696 0.0 10151624
16:00+9wnw3530100 0.0 10151790
19:00+4nnw2254100 0.0 101829
22:00+3ne236956 0.0 1020118
26 october, tue
tue2601:00+1ne238933 0.0 1022106
04:000nne238419 0.0 1023105
07:00−2nne238311 0.0 102561
10:00+2ne22553 0.0 1024473
13:00+7nnw12363 0.0 10211326
16:00+7nw013218 0.0 10201452
19:000ne34786 0.0 1027156
22:00−2ne348710 0.0 1029132
27 october, wed
wed2701:00−3ne34908 0.0 103198
04:00−4ne34928 0.0 103171
07:00−4ne33918 0.0 103250
10:00+2ne22572 0.0 1028359
13:00+7w12360 0.0 10241030
16:00+8wsw22310 0.0 10221077
19:00+2ne11602 0.0 102513
22:000ne11792 0.0 102713